SCD 1 1 22490U 93009B 22145.76874624 .00000436 00000-0 70961-4 0 9996 2 22490 24.9712 355.6343 0042752 296.4912 111.7946 14.44687448546279 TECHSAT 1B 1 25397U 98043D 22145.87001799 .00000100 00000-0 63551-4 0 9990 2 25397 98.8162 96.2802 0001737 133.9921 226.1400 14.23753921240430 SCD 2 1 25504U 98060A 22145.51400656 .00000440 00000-0 74065-4 0 9994 2 25504 24.9944 211.7359 0016984 302.4200 183.4222 14.44200917245888 LANDSAT 7 1 25682U 99020A 22146.08476622 .00000515 00000-0 11723-3 0 9991 2 25682 97.9803 194.9984 0001479 101.5514 258.5862 14.59743262229308 TUBSAT 1 25757U 99029B 22144.55711928 .00000113 00000-0 39854-4 0 9994 2 25757 98.4864 86.8872 0014162 186.2038 173.8983 14.51495810217915 QUIKSCAT 1 25789U 99034A 22145.58528380 .00000408 00000-0 11200-3 0 9998 2 25789 98.4795 12.7549 0099546 137.1837 223.7164 14.49576831197400 TERRA 1 25994U 99068A 22146.16202229 .00000410 00000-0 10072-3 0 9998 2 25994 98.1373 218.5924 0001442 95.5979 348.7098 14.57167259193377 MAROC TUBSAT 1 27004U 01056D 22145.91136227 -.00000012 00000-0 38259-4 0 9995 2 27004 99.6218 286.2984 0019686 353.1616 119.9374 13.70156899 23057 AQUA 1 27424U 02022A 22145.83444493 .00000872 00000-0 20283-3 0 9993 2 27424 98.2466 87.9413 0001117 56.2930 1.2549 14.57279064 66933 IRS P6 1 28051U 03046A 22146.13031564 .00000315 00000-0 12467-3 0 9999 2 28051 98.4050 217.7065 0059909 84.3963 276.4052 14.34201977967823 TANSUO 1 1 28220U 04012A 22142.55037971 .00005272 00000-0 40874-3 0 9991 2 28220 97.9765 133.9620 0015274 65.9314 294.3506 15.01756818986183 ROCSAT 2 1 28254U 04018A 22145.98938256 -.00000149 00000-0 -72498-4 0 9998 2 28254 98.6688 155.7343 0003289 129.1659 284.4451 14.00745029921115 AURA 1 28376U 04026A 22145.83519014 .00000872 00000-0 20356-3 0 9999 2 28376 98.2083 89.4954 0001536 85.0806 275.0567 14.57133219949931 CARTOSAT-1 1 28649U 05017A 22146.17131408 .00001135 00000-0 14207-3 0 9999 2 28649 97.7199 207.2841 0000350 27.4331 332.6902 14.84118061923457 SINAH 1 1 28893U 05043D 22145.87063478 .00000421 00000-0 93766-4 0 9991 2 28893 98.1087 269.8961 0014047 241.0505 118.9288 14.61694996883651 EROS B 1 29079U 06014A 22146.11647167 .00018326 00000-0 76349-3 0 9998 2 29079 97.3797 267.2055 0004685 39.0692 86.0836 15.23761971892978 RESURS DK-1 1 29228U 06021A 22143.53055615 .00001739 00000-0 13553-3 0 9994 2 29228 69.9347 192.5309 0001415 123.5639 236.5658 15.03189728878633 KOMPSAT 2 1 29268U 06031A 22146.19584806 .00000656 00000-0 13851-3 0 9991 2 29268 97.8918 16.2135 0018028 81.8145 278.5109 14.62293511844647 LAPAN-TUBSAT 1 29709U 07001A 22146.07984317 .00000840 00000-0 11131-3 0 9991 2 29709 97.9647 108.8494 0012334 335.3014 24.7605 14.82478957831198 CARTOSAT 2AT 1 29710U 07001B 22145.77459554 .00031803 00000-0 79732-3 0 9993 2 29710 97.8641 249.9441 0154373 136.8544 224.4914 15.28570077832778 HAIYANG 1B 1 31113U 07010A 22146.02579812 .00000091 00000-0 51203-4 0 9991 2 31113 98.3200 172.1004 0012472 280.1192 79.8584 14.30314063789300 SKYMED 1 1 31598U 07023A 22146.12333519 .00000322 00000-0 47018-4 0 9991 2 31598 97.8886 330.1083 0001378 91.5240 268.6123 14.82162022809656 TERRA SAR X 1 31698U 07026A 22145.85434653 -.00000221 00000-0 -73538-5 0 9992 2 31698 97.4450 153.7719 0001944 95.9093 352.4030 15.19149111828697 WORLDVIEW 1 1 32060U 07041A 22145.89693280 .00006950 00000-0 28691-3 0 9991 2 32060 97.3860 265.6041 0003094 202.1246 157.9858 15.24335583817034 YAOGAN 3 1 32289U 07055A 22146.17760046 .00001512 00000-0 20056-3 0 9992 2 32289 97.9487 168.2599 0001209 107.6490 252.4841 14.81305297785746 SKYMED 2 1 32376U 07059A 22146.15706484 .00000372 00000-0 53269-4 0 9993 2 32376 97.8887 330.1414 0001511 89.6911 270.4356 14.82164159782407 RADARSAT 2 1 32382U 07061A 22146.16314652 .00000214 00000-0 10000-3 0 9996 2 32382 98.5765 153.4253 0001277 94.1684 355.1982 14.29986438754117 CARTOSAT 2A 1 32783U 08021A 22146.15567331 .00001085 00000-0 15501-3 0 9999 2 32783 97.9665 206.6126 0011850 235.8733 124.1353 14.78678805759729 JASON 2 1 33105U 08032A 22145.82194205 -.00000052 00000-0 40744-4 0 9991 2 33105 66.0400 289.9220 0007855 270.9577 197.6994 12.87641801652718 RAPIDEYE 2 1 33312U 08040A 22145.75802427 .00001769 00000-0 15984-3 0 9996 2 33312 97.5956 205.5128 0012159 167.1478 193.0056 14.96665682743506 RAPIDEYE 5 1 33313U 08040B 22145.73403053 .00001178 00000-0 11285-3 0 9991 2 33313 97.5914 202.1128 0015897 56.0401 304.2329 14.94918741743355 RAPIDEYE 1 1 33314U 08040C 22145.76709731 .00001642 00000-0 15289-3 0 9991 2 33314 97.6158 206.0532 0026579 171.2465 188.9225 14.95375603743513 RAPIDEYE 3 1 33315U 08040D 22146.17000772 .00001691 00000-0 14828-3 0 9999 2 33315 97.5978 206.5278 0005011 116.2854 243.8884 14.97933170743731 RAPIDEYE 4 1 33316U 08040E 22145.78016483 .00002050 00000-0 18750-3 0 9990 2 33316 97.6025 204.4045 0008722 76.6728 283.5466 14.96034932743527 HJ-1A 1 33320U 08041A 22146.14455240 .00000761 00000-0 11243-3 0 9992 2 33320 97.6785 180.2480 0019842 307.4341 52.5067 14.77834214739098 HJ-1B 1 33321U 08041B 22146.15672595 .00001615 00000-0 23033-3 0 9997 2 33321 97.6958 183.7788 0033491 325.0264 34.8743 14.77709115739091 GEOEYE 1 1 33331U 08042A 22146.15757646 .00000636 00000-0 12899-3 0 9990 2 33331 98.1115 221.4598 0008435 354.0992 6.0134 14.64504294733100 THEOS 1 33396U 08049A 22146.16935132 .00000168 00000-0 99872-4 0 9994 2 33396 98.7490 214.1575 0001031 95.8425 349.2374 14.19996233707504 SKYMED 3 1 33412U 08054A 22146.18596138 .00122332 00000-0 14145-1 0 9995 2 33412 97.8862 330.2117 0001402 358.5788 1.6004 14.84869655734879 YAOGAN 4 1 33446U 08061A 22145.41767346 .00000760 00000-0 11379-3 0 9994 2 33446 97.8160 86.2493 0015492 204.5027 155.5449 14.77358659726199 GOSAT (IBUKI) 1 33492U 09002A 22145.84723575 .00000755 00000-0 14174-3 0 9994 2 33492 98.1122 258.7752 0001309 83.1897 276.9457 14.67526492714368 YAOGAN 6 1 34839U 09021A 22145.95814553 .00006931 00000-0 24317-3 0 9992 2 34839 97.0798 127.2009 0026930 22.1988 338.0413 15.29378774727810 DEIMOS 1 1 35681U 09041A 22146.16891786 .00000595 00000-0 10202-3 0 9995 2 35681 97.7164 358.3909 0000802 7.0662 353.0554 14.72043577688497 DUBAISAT 1 1 35682U 09041B 22146.03218520 .00001102 00000-0 19491-3 0 9995 2 35682 97.7995 300.2850 0011785 136.8756 223.3365 14.69168572686999 OCEANSAT 2 1 35931U 09051A 22146.09169332 -.00057560 00000-0 -16403-1 0 9994 2 35931 98.2966 241.2903 0008904 190.5444 169.5542 14.45658150670972 WORLDVIEW 2 1 35946U 09055A 22146.21298926 .00000191 00000-0 78044-4 0 9998 2 35946 98.4866 221.6380 0002159 85.5824 274.5621 14.37667472662717 SMOS 1 36036U 09059A 22145.58380166 .00000330 00000-0 11937-3 0 9992 2 36036 98.4437 333.4389 0001230 89.9927 270.1402 14.39739490659979 YAOGAN 7 1 36110U 09069A 22146.08729220 .00000770 00000-0 12153-3 0 9999 2 36110 98.2017 5.5123 0026286 117.4400 242.9484 14.75117043670848 TANDEM X 1 36605U 10030A 22145.85609410 -.00000525 00000-0 -21806-4 0 9996 2 36605 97.4455 153.7747 0001951 87.1551 10.6923 15.19146145661431 CARTOSAT 2B 1 36795U 10035A 22146.12615927 .00001041 00000-0 14896-3 0 9994 2 36795 97.9611 206.7412 0012934 320.6935 39.3349 14.78667909640765 YAOGAN 10 1 36834U 10038A 22146.11227663 .00000829 00000-0 11322-3 0 9990 2 36834 97.9763 157.0402 0001299 89.2545 270.8819 14.81256133637476 SKYMED 4 1 37216U 10060A 22146.16973252 -.00001554 00000-0 -18881-3 0 9992 2 37216 97.8882 330.1552 0001361 97.9276 262.1218 14.82142817624959 HAIYANG 2A 1 37781U 11043A 22146.01432135 .00000010 00000-0 52720-4 0 9990 2 37781 99.3165 152.2611 0000320 93.5468 266.5720 13.78737469542542 RASAT 1 37791U 11044D 22146.10617618 .00000711 00000-0 14122-3 0 9994 2 37791 98.0939 239.4444 0021319 197.4347 162.6123 14.65001693575843 MEGHA-TROPIQUES 1 37838U 11058A 22146.13581542 .00000443 00000-0 10095-3 0 9997 2 37838 19.9785 61.9178 0010245 33.4475 326.6575 14.09737782547952 SRMSAT 1 37841U 11058D 22146.06770882 .00000447 00000-0 10047-3 0 9991 2 37841 19.9735 30.2287 0011945 98.5093 36.3585 14.10752399548294 YAOGAN 13 1 37941U 11072A 22146.16542920 .00009449 00000-0 42900-3 0 9993 2 37941 97.6304 95.9999 0003811 100.3914 315.3220 15.21006279581414 PLEIADES 1 1 38012U 11076F 22145.87867269 .00000482 00000-0 11355-3 0 9998 2 38012 98.1997 221.1386 0001653 87.1762 272.9627 14.58573220555780 ZY 1 1 38038U 11079A 22146.19315476 .00000341 00000-0 13429-3 0 9991 2 38038 98.5894 210.9124 0006588 341.2775 18.8175 14.35378244546299 ZY 3 1 38046U 12001A 22146.19575019 .00007589 00000-0 34178-3 0 9992 2 38046 97.3406 217.6688 0003468 114.5969 301.8897 15.21336940576228 RISAT 1 1 38248U 12017A 22145.63233856 .00004834 00000-0 28654-3 0 9993 2 38248 97.5526 157.2619 0003593 5.9673 354.1600 15.11837703555372 KOMPSAT 3 1 38338U 12025B 22146.13162726 .00000728 00000-0 15496-3 0 9993 2 38338 98.1792 86.4729 0012142 83.3664 276.8921 14.61846018534713 KANOPUS-V 1 1 38707U 12039A 22146.09529769 .00008736 00000-0 38696-3 0 9991 2 38707 97.4697 68.3311 0002174 98.5263 357.4403 15.21870447545995 EXACTVIEW-1 1 38709U 12039C 22146.14404632 .00000059 00000-0 45766-4 0 9997 2 38709 99.0100 212.0734 0011960 120.5199 239.7161 14.24100275511564 SPOT 6 1 38755U 12047A 22146.09981283 .00000496 00000-0 11647-3 0 9998 2 38755 98.1560 213.5049 0001100 97.6524 262.4804 14.58578144516890 PLEIADES 1B 1 39019U 12068A 22146.11900625 .00000491 00000-0 11550-3 0 9997 2 39019 98.1952 221.3738 0001423 86.1420 273.9944 14.58561907504671 GOKTURK 2 1 39030U 12073A 22146.08610851 -.00007360 00000-0 -11445-2 0 9997 2 39030 97.8580 25.8509 0002494 86.2239 273.9254 14.72837073506063 LANDSAT 8 1 39084U 13008A 22146.17545545 .00000366 00000-0 91210-4 0 9999 2 39084 98.2230 216.7888 0001203 99.0655 261.0680 14.57116893493756 SARAL 1 39086U 13009A 22146.17121105 .00000106 00000-0 55754-4 0 9999 2 39086 98.5477 332.1431 0001256 35.4298 324.6969 14.32042252483290 GAOFEN 1 1 39150U 13018A 22146.13491570 .00000854 00000-0 12905-3 0 9993 2 39150 97.7879 212.8372 0018823 354.9580 5.1441 14.76616228489445 VNREDSAT 1 1 39160U 13021B 22146.14220080 .00000816 00000-0 16845-3 0 9990 2 39160 98.0774 221.9972 0001462 85.0408 275.0975 14.62937517483359 KOMPSAT 5 1 39227U 13042A 22146.18139197 .00000154 00000-0 15357-4 0 9992 2 39227 97.6319 332.1428 0002112 83.6369 27.8870 15.04511503480935 SKYSAT 1 1 39418U 13066C 22145.75823111 .00002807 00000-0 23048-3 0 9990 2 39418 97.5574 218.2482 0020888 347.4820 12.5883 14.99823604465250 DUBAISAT 2 1 39419U 13066D 22146.15241889 .00002169 00000-0 20339-3 0 9993 2 39419 97.4465 179.2695 0013759 0.5073 359.6165 14.94925581463862 GPM 1 39574U 14009C 22145.83168868 .00023058 00000-0 31971-3 0 9996 2 39574 65.0025 265.3435 0009824 266.2718 93.7305 15.57001344468095 SENTINEL 1A 1 39634U 14016A 22146.09906316 -.00000074 00000-0 -60430-5 0 9997 2 39634 98.1819 153.9674 0001288 80.3247 279.8108 14.59197326433766 KAZEOSAT 1 1 39731U 14024A 22146.21355558 .00000294 00000-0 10316-3 0 9992 2 39731 98.4636 221.8910 0001189 81.2540 278.8794 14.41982861424888 ALOS 2 1 39766U 14029A 22146.08602762 -.00000184 00000-0 -17820-4 0 9990 2 39766 97.9210 243.5348 0001348 92.5137 267.6132 14.79469425432325 KAZEOSAT 2 1 40010U 14033A 22146.09600974 .00000740 00000-0 99308-4 0 9990 2 40010 97.7257 32.1022 0015594 147.1970 213.0216 14.82087443429132 HODOYOSHI 4 1 40011U 14033B 22146.09732367 .00001361 00000-0 17838-3 0 9990 2 40011 97.6806 20.2531 0027145 148.0044 212.2826 14.81642609428780 DEIMOS 2 1 40013U 14033D 22146.13571049 .00001838 00000-0 22008-3 0 9999 2 40013 97.7618 43.8332 0001682 123.3509 236.7868 14.85297257429882 HODOYOSHI 3 1 40015U 14033F 22145.60160738 .00000844 00000-0 12006-3 0 9994 2 40015 97.6439 0.7260 0036870 175.0154 185.1432 14.78891380427930 SPOT 7 1 40053U 14034A 22146.13516881 .00000494 00000-0 11599-3 0 9997 2 40053 98.1724 213.9420 0001055 90.5871 269.5463 14.58566310420838 SKYSAT 2 1 40072U 14037D 22145.60943441 .00000992 00000-0 13333-3 0 9999 2 40072 98.4122 12.9828 0007208 38.7021 321.4706 14.81695305425869 WORLDVIEW 3 1 40115U 14048A 22145.86633966 .00001091 00000-0 13465-3 0 9992 2 40115 97.8548 221.1177 0000344 151.2012 208.9221 14.84842888421767 YAOGAN 21 1 40143U 14053A 22146.21301935 .00008322 00000-0 35074-3 0 9991 2 40143 97.3504 213.9818 0015623 307.6899 137.2688 15.23467335429169 YAOGAN 22 1 40275U 14063A 22146.05897632 -.00000028 00000-0 47166-4 0 9996 2 40275 100.5640 266.6614 0005692 298.7718 61.2825 13.15438876364802 ASNARO 1 40298U 14070A 22146.16686979 .00010648 00000-0 50454-3 0 9992 2 40298 97.4669 228.4880 0002084 167.2887 249.2405 15.19490898418813 HODOYOSHI 1 1 40299U 14070B 22146.18383318 .00008003 00000-0 30649-3 0 9992 2 40299 97.2434 214.9683 0011612 209.7028 206.0467 15.26737185419663 CHUBUSAT 1 1 40300U 14070C 22146.17879897 .00008546 00000-0 33983-3 0 9992 2 40300 97.1916 201.9068 0017232 234.4403 191.3145 15.25386414419257 QSAT-EOS 1 40301U 14070D 22146.15430336 .00027356 00000-0 80215-3 0 9992 2 40301 97.2094 214.1738 0021011 186.5715 259.3497 15.34932683420082 TSUBAME 1 40302U 14070E 22146.15814888 .00009440 00000-0 41978-3 0 9998 2 40302 97.1483 171.9234 0033756 295.0587 151.9649 15.21182919418018 YAOGAN 23 1 40305U 14071A 22146.13071941 .00009721 00000-0 43759-3 0 9996 2 40305 97.6051 97.3276 0002022 105.6280 350.9256 15.21295483417163 CBERS-4 1 40336U 14079A 22146.10867761 .00000180 00000-0 77693-4 0 9993 2 40336 98.4825 220.2957 0001688 109.2728 250.8648 14.35451530391202 RESURS P2 1 40360U 14087A 22146.14693466 .00008279 00000-0 23484-3 0 9997 2 40360 97.2057 231.4972 0009689 161.3133 287.6136 15.36429878414839 YAOGAN 26 1 40362U 14088A 22146.11069270 .00008759 00000-0 36926-3 0 9995 2 40362 97.1481 196.8865 0005604 157.5346 254.4126 15.23525781412624 SMAP 1 40376U 15003A 22145.87356566 .00000599 00000-0 12482-3 0 9992 2 40376 98.1241 153.0279 0001022 96.3904 263.7415 14.63449554390689 KOMPSAT 3A 1 40536U 15014A 22146.10753472 .00005099 00000-0 30259-3 0 9998 2 40536 97.5300 89.0521 0006345 163.9182 17.0222 15.11764034395662 SENTINEL 2A 1 40697U 15028A 22146.16564070 .00000190 00000-0 89071-4 0 9995 2 40697 98.5688 221.2595 0001247 91.4062 268.7279 14.30815725361663 CARBONITE 1 1 40718U 15032D 22146.14980824 .00001664 00000-0 25182-3 0 9990 2 40718 97.7403 11.4671 0018110 86.5713 273.7560 14.75353305370133 YAOGAN 27 1 40878U 15040A 22146.03538755 -.00000020 00000-0 58662-4 0 9992 2 40878 100.1308 178.7982 0008782 40.5738 319.6040 13.15979329324085 LAPAN A2 1 40931U 15052B 22146.09704928 .00001234 00000-0 82391-4 0 9991 2 40931 5.9996 328.5628 0012804 216.8460 143.0778 14.76806774360035 YAOGAN 28 1 41026U 15064A 22146.19133308 .00008872 00000-0 37424-3 0 9990 2 41026 97.5510 288.7804 0003537 33.7753 90.6136 15.23535659364849 YAOGAN 29 1 41038U 15069A 22146.11761071 .00000633 00000-0 88891-4 0 9996 2 41038 98.0557 146.2047 0001723 118.5086 241.6300 14.80855784350989 KENT RIDGE 1 1 41167U 15077B 22144.31923131 .00003561 00000-0 17301-3 0 9995 2 41167 14.9835 24.8361 0011433 39.1930 105.8574 15.09989676355599 TELEOS 1 1 41169U 15077D 22146.17632684 .00005864 00000-0 28613-3 0 9999 2 41169 14.9828 341.5817 0009640 119.1222 240.9734 15.12801988356142 JASON 3 1 41240U 16002A 22145.83417042 -.00000016 00000-0 19368-3 0 9991 2 41240 66.0418 336.0528 0007926 271.6037 88.4070 12.80931676297014 SENTINEL 3A 1 41335U 16011A 22146.18009536 .00000120 00000-0 67730-4 0 9992 2 41335 98.6233 213.8101 0001264 96.8133 263.3191 14.26736063326596 SENTINEL 1B 1 41456U 16025A 22146.20143710 -.00000042 00000-0 79356-6 0 9990 2 41456 98.1823 153.8955 0001336 79.9658 280.1703 14.59197844323940 ZY 3 2 1 41556U 16033A 22146.09581365 .00007603 00000-0 34199-3 0 9991 2 41556 97.5362 214.7749 0003866 27.1553 61.4478 15.21390385332505 NUSAT 1 1 41557U 16033B 22146.08423789 .00019745 00000-0 59602-3 0 9992 2 41557 97.3861 243.7523 0012385 99.0098 23.4682 15.34230490333957 NUSAT 2 1 41558U 16033C 22146.07376451 .00018307 00000-0 51993-3 0 9993 2 41558 97.4055 249.3207 0011742 88.4032 29.0653 15.36173918334214 CARTOSAT 2C 1 41599U 16040A 22146.14685519 .00014610 00000-0 69601-3 0 9990 2 41599 97.4879 205.9442 0012299 259.0200 185.1639 15.19164714328545 SKYSAT C1 1 41601U 16040C 22146.15693393 .00012261 00000-0 33629-3 0 9995 2 41601 97.1552 222.1158 0002287 151.5980 208.5390 15.37410546330573 LAPAN A3 1 41603U 16040E 22146.12704285 .00002413 00000-0 11286-3 0 9990 2 41603 97.2077 184.1260 0011755 235.7018 209.1501 15.20617657328646 BIROS 1 41604U 16040F 22145.67962487 .00005655 00000-0 23467-3 0 9995 2 41604 97.2124 190.9405 0011004 205.5757 154.4938 15.24178104328995 3CAT-2 1 41732U 16051B 22146.03800991 .00017596 00000-0 55014-3 0 9991 2 41732 97.3815 69.1574 0012553 22.2241 41.7118 15.33136998321896 SKYSAT C4 1 41771U 16058B 22145.40345020 .00010761 00000-0 29478-3 0 9990 2 41771 97.1205 211.3895 0005713 127.8287 232.3476 15.37466915317416 SKYSAT C5 1 41772U 16058C 22146.15716440 .00006033 00000-0 23446-3 0 9998 2 41772 97.2673 210.3149 0001438 100.7107 259.4294 15.26412169316371 SKYSAT C2 1 41773U 16058D 22146.16417101 .00010492 00000-0 28761-3 0 9991 2 41773 97.1220 212.5016 0002406 32.1269 328.0122 15.37463822317557 SKYSAT C3 1 41774U 16058E 22145.74447247 .00020341 00000-0 45109-3 0 9998 2 41774 97.1208 212.2601 0001595 110.1134 250.0287 15.43766935317494 ALSAT 1B 1 41785U 16059C 22146.10227018 .00000485 00000-0 88693-4 0 9997 2 41785 97.9106 191.0384 0008614 304.7017 55.3384 14.70041469302533 PATHFINDER 1 1 41787U 16059E 22146.07066248 .00000700 00000-0 14171-3 0 9990 2 41787 97.9140 190.7841 0028956 236.8827 122.9632 14.64005751302468 GOKTURK-1A 1 41875U 16073A 22146.18093159 .00000582 00000-0 12328-3 0 9997 2 41875 98.1347 41.4071 0001377 78.2993 281.8366 14.62756769292024 RESOURCESAT 2A 1 41877U 16074A 22146.14301698 .00000187 00000-0 10516-3 0 9994 2 41877 98.7172 221.6586 0002302 63.0000 297.1413 14.21634942283599 CARTOSAT 2D 1 41948U 17008A 22145.70416400 .00005904 00000-0 28317-3 0 9990 2 41948 97.4660 205.6205 0007228 54.7068 305.4820 15.19248933292346 SENTINEL 2B 1 42063U 17013A 22146.13058939 .00000174 00000-0 82913-4 0 9999 2 42063 98.5694 221.1880 0000883 79.5870 280.5416 14.30818036272578 ZHUHAI-1 02 1 42759U 17034B 22146.18781228 .00005638 00000-0 33735-3 0 9990 2 42759 43.0169 95.4144 0007803 157.3756 335.2297 15.11756293272980 NUSAT-3 1 42760U 17034C 22146.14559162 .00007317 00000-0 42486-3 0 9997 2 42760 43.0149 90.6550 0008228 182.7534 302.9486 15.12508870273042 ZHUHAI-1 01 1 42761U 17034D 22146.22691059 .00005554 00000-0 33163-3 0 9992 2 42761 43.0175 94.0031 0008265 160.0683 343.3216 15.11849217272994 CARTOSAT 2E 1 42767U 17036C 22146.13328787 .00006216 00000-0 29773-3 0 9993 2 42767 97.4546 206.9232 0008492 97.9344 345.9065 15.19267198272974